[[{"header":{"parameterUnit":"m.s-1","parameterCategory":1,"la1":30.2991,"la2":30.254,"lo1":-89.0895,"lo2":-89.0444,"dy":0.0017,"dx":0.0017,"nx":28,"ny":28,"refTime":"2023-08-20T03:00:00:Z","depth":0,"parameterNumber":2,"parameterNumberName":"U-component_of_WINDS"},"data":[0,0,0,0,0,0,0,0,0,0,0,0,0,0,0,0,0,0,0,0,0,0,0,0,0,0,0,0,0,0,0,0,0,0,0,0,0,0,0,0,0,0,0,0,0,0,0,0,0,0,0,0,0,0,0,0,0,0,-4.8472,-4.8472,0,-4.8446,-4.8445,-4.8445,-4.8279,-4.8275,-4.8271,-4.8267,-4.8241,-4.8244,-4.8247,0,0,0,0,0,0,0,0,0,0,0,0,0,-4.8379,-4.8382,-4.8472,-4.8472,-4.8471,-4.8446,-4.8445,-4.8445,-4.8279,-4.8275,-4.827,-4.8265,-4.824,-4.8244,-4.8247,0,0,0,0,0,0,0,0,0,0,0,0,0,-4.8393,-4.8383,-4.8472,-4.8385,-4.8377,-4.8446,-4.8445,-4.8445,-4.828,-4.8274,-4.8268,-4.8263,-4.8239,-4.8243,-4.8248,-4.8398,0,0,-4.8262,-4.8264,0,0,0,0,0,0,0,0,-4.8393,-4.8397,-4.8399,-4.8392,-4.8383,-4.8359,-4.8403,-4.8429,-4.8282,-4.8317,-4.8267,-4.826,-4.8285,-4.8286,-4.8294,-4.8396,-4.8395,-4.8262,-4.8265,-4.8267,-4.8269,0,0,0,0,0,0,0,-4.8392,-4.8397,-4.8461,-4.8399,-4.8389,-4.8348,-4.8344,-4.8407,-4.8336,-4.8314,-4.8302,-4.8301,-4.828,-4.829,-4.8292,-4.8395,-4.8262,-4.8266,-4.8269,-4.8271,-4.8617,-4.8624,0,0,0,0,0,0,-4.8403,-4.8397,-4.8462,-4.8461,-4.8373,-4.8355,-4.835,-4.8373,-4.8334,-4.8323,-4.8306,-4.8293,-4.8285,-4.8287,-4.8291,-4.8461,-4.8267,-4.8272,-4.8274,-4.8611,-4.8619,-4.8626,0,0,0,0,0,0,-4.8401,-4.841,-4.8463,-4.8426,-4.8429,-4.8363,-4.839,-4.8376,-4.8385,-4.8329,-4.8315,-4.833,-4.8281,-4.8284,-4.8372,-4.8458,-4.8274,-4.8278,-4.8603,-4.8613,-4.8622,-4.8806,0,0,0,0,0,0,-4.8399,-4.8411,-4.8466,-4.8428,-4.8432,-4.8545,-4.8396,-4.8379,-4.8394,-4.8377,-4.8347,-4.8336,-4.8276,-4.8366,-4.8377,-4.8461,-4.8281,-4.8595,-4.8608,-4.8619,-4.8792,-4.8821,-4.8845,0,0,0,0,0,-4.8397,-4.852,-4.847,-4.8479,-4.85,-4.855,-4.8552,-4.848,-4.8402,-4.8457,-4.8421,-4.8337,-4.8448,-4.8376,-4.8387,-4.8474,-4.8589,-4.8604,-4.8618,-4.878,-4.8815,-4.8845,0,0,0,0,0,0,-4.857,-4.8513,-4.8457,-4.8572,-4.8567,-4.8522,-4.8589,-4.852,-4.8538,-4.8521,-4.8431,-4.8426,-4.8527,-4.851,-4.8431,-4.8617,-4.8504,-4.8522,-4.8624,-4.8657,-4.8683,-4.8684,-4.8285,0,0,0,0,0,-4.8622,-4.8667,-4.8615,-4.8721,-4.8721,-4.8657,-4.8676,-4.8621,-4.8612,-4.8609,-4.8579,-4.8575,-4.8608,-4.8632,-4.866,-4.879,-4.878,-4.8855,-4.8882,-4.8905,-4.892,-4.8986,-4.9018,-4.8673,-4.8673,-4.8673,0,0,-4.8728,-4.8703,-4.8737,-4.8755,-4.8744,-4.8793,-4.8656,-4.8713,-4.8748,-4.8618,-4.8698,-4.8677,-4.8666,-4.8775,-4.8821,-4.8763,-4.9013,-4.8923,-4.8941,-4.8944,-4.9004,-4.9036,-4.9066,-4.8683,-4.8681,-4.868,0,0,-4.8946,-4.8933,-4.9018,-4.9011,-4.8998,-4.8954,-4.8976,-4.8942,-4.8922,-4.9001,-4.8904,-4.8945,-4.9005,-4.9001,-4.9007,-4.9226,-4.9149,-4.9238,-4.9376,-4.9442,-4.9469,-4.9492,-4.9568,-4.9597,-4.9254,-4.9254,-4.9254,0,-4.908,-4.9149,-4.9071,-4.9135,-4.9145,-4.9031,-4.9116,-4.9114,-4.9111,-4.912,-4.9056,-4.9129,-4.9114,-4.9219,-4.9273,-4.9282,-4.9303,-4.9239,-4.9471,-4.9494,-4.9515,-4.9586,-4.9615,-4.9265,-4.9263,-4.9262,-4.9261,0,-4.9314,-4.9363,-4.9434,-4.9433,-4.9452,-4.9527,-4.946,-4.9489,-4.9434,-4.9397,-4.9479,-4.9458,-4.9478,-4.95,-4.9447,-4.9599,-4.9563,-4.9487,-4.9371,-4.956,-4.9625,-4.9652,-4.928,-4.9276,-4.9273,-4.927,0,0,-4.9637,-4.9593,-4.962,-4.9618,-4.9596,-4.9632,-4.9703,-4.9723,-4.9748,-4.9751,-4.9806,-4.9861,-4.979,-4.9797,-4.9743,-4.9801,-4.9973,-4.9717,-4.9715,-4.9763,-5.0137,-5.0192,-5.0225,-4.9924,-4.9929,-4.9933,-5.0137,0,-4.9844,-4.9959,-4.9892,-5.0017,-5.0061,-4.9954,-5.0015,-5.0008,-4.9977,-5.001,-4.9976,-5.0015,-4.992,-4.9923,-4.9976,-4.9941,-5.0047,-4.9926,-4.9973,-4.9976,-4.9976,-5.0259,-5.0318,-5.0511,-5.0162,-5.0167,-5.017,0,-5.01,-5.0113,-5.0243,-5.0211,-5.0227,-5.0283,-5.0295,-5.0329,-5.032,-5.0293,-5.0302,-5.0233,-5.03,-5.0189,-5.0279,-5.0198,-5.0215,-5.0201,-5.0207,-5.0205,-5.0082,-5.0263,-5.0571,-5.06,-5.021,-5.0207,-5.0204,0,-5.0319,-5.037,-5.0453,-5.0455,-5.0422,-5.0463,-5.0451,-5.0436,-5.0452,-5.0464,-5.0474,-5.0495,-5.0505,-5.0523,-5.0462,-5.0387,-5.056,-5.0444,-5.0538,-5.054,-5.0576,-5.0574,-5.0888,-5.0593,-5.0592,-5.0592,-5.0591,0,-5.0555,-5.0638,-5.0551,-5.0602,-5.0692,-5.0615,-5.0706,-5.0683,-5.0671,-5.0715,-5.0626,-5.067,-5.0588,-5.0624,-5.0578,-5.0658,-5.0665,-5.0644,-5.063,-5.065,-5.0652,-5.0657,-5.064,-5.0599,-5.0598,-5.0596,-5.0595,0,-5.0814,-5.0759,-5.0842,-5.0804,-5.0797,-5.0865,-5.0832,-5.0878,-5.0841,-5.0899,-5.0908,-5.0851,-5.0889,-5.0831,-5.0863,-5.0831,-5.0942,-5.0909,-5.0945,-5.0934,-5.103,-5.1021,-5.1355,-5.1394,-5.1078,-5.1081,-5.1083,0,-5.0966,-5.1027,-5.0996,-5.1019,-5.1012,-5.1051,-5.1067,-5.0995,-5.1016,-5.101,-5.1057,-5.1087,-5.1107,-5.1173,-5.1135,-5.1159,-5.1124,-5.1239,-5.1126,-5.1144,-5.1122,-5.1117,-5.1122,-5.1261,-5.1265,-5.1268,-5.1271,0,-5.1241,-5.1211,-5.1238,-5.1256,-5.1278,-5.1288,-5.1292,-5.1317,-5.1241,-5.1269,-5.1306,-5.1322,-5.1354,-5.1385,-5.14,-5.1388,-5.1317,-5.1308,-5.133,-5.1349,-5.1366,-5.1355,-5.1004,-5.1299,-5.1296,-5.1294,-5.1293,-5.1292,-5.1449,-5.1497,-5.1483,-5.1515,-5.1511,-5.1517,-5.1558,-5.1527,-5.1557,-5.1576,-5.1533,-5.1581,-5.1571,-5.1583,-5.1579,-5.1616,-5.1565,-5.1598,-5.1606,-5.1614,-5.1628,-5.1364,-5.1619,-5.1618,-5.1617,-5.1616,-5.1615,0,-5.1717,-5.1702,-5.1733,-5.1741,-5.1768,-5.17,-5.1701,-5.1727,-5.177,-5.1767,-5.1788,-5.1832,-5.1862,-5.1827,-5.185,-5.1887,-5.1855,-5.1895,-5.189,-5.1888,-5.1673,-5.165,-5.192,-5.192,-5.192,-5.192,-5.192,-5.192,-5.1859,-5.1937,-5.1906,-5.1981,-5.1966,-5.2012,-5.2019,-5.2024,-5.202,-5.2072,-5.2096,-5.2074,-5.2057,-5.2079,-5.2104,-5.2093,-5.2105,-5.2156,-5.2134,-5.1933,-5.1903,-5.1874,-5.1852,-5.216,-5.216,-5.2344,-5.2346,-5.2347]},{"header":{"parameterUnit":"m.s-1","parameterCategory":1,"la1":30.2991,"la2":30.254,"lo1":-89.0895,"lo2":-89.0444,"dy":0.0017,"dx":0.0017,"nx":28,"ny":28,"refTime":"2023-08-20T03:00:00:Z","depth":0,"parameterNumber":3,"parameterNumberName":"V-component_of_WINDS"},"data":[0,0,0,0,0,0,0,0,0,0,0,0,0,0,0,0,0,0,0,0,0,0,0,0,0,0,0,0,0,0,0,0,0,0,0,0,0,0,0,0,0,0,0,0,0,0,0,0,0,0,0,0,0,0,0,0,0,0,0.2191,0.2191,0,0.2186,0.2186,0.2186,0.2137,0.2135,0.2134,0.2133,0.2128,0.2129,0.213,0,0,0,0,0,0,0,0,0,0,0,0,0,0.2161,0.2161,0.2191,0.2191,0.2191,0.2186,0.2186,0.2186,0.2137,0.2135,0.2134,0.2133,0.2127,0.2128,0.213,0,0,0,0,0,0,0,0,0,0,0,0,0,0.2166,0.2162,0.2191,0.2166,0.2164,0.2186,0.2186,0.2186,0.2137,0.2135,0.2134,0.2132,0.2127,0.2128,0.213,0.2176,0,0,0.2134,0.2135,0,0,0,0,0,0,0,0,0.2166,0.2168,0.217,0.2168,0.2165,0.216,0.2173,0.2182,0.2138,0.2147,0.2133,0.2131,0.214,0.214,0.2143,0.2175,0.2175,0.2134,0.2135,0.2136,0.2136,0,0,0,0,0,0,0,0.2166,0.2168,0.2189,0.217,0.2167,0.2156,0.2154,0.2174,0.2154,0.2146,0.2143,0.2143,0.2138,0.2142,0.2143,0.2175,0.2134,0.2136,0.2137,0.2137,0.2247,0.2249,0,0,0,0,0,0,0.2169,0.2168,0.2189,0.2189,0.2161,0.2158,0.2156,0.2164,0.2154,0.215,0.2144,0.2141,0.214,0.2141,0.2142,0.2197,0.2136,0.2137,0.2138,0.2245,0.2247,0.2249,0,0,0,0,0,0,0.2168,0.2171,0.2189,0.2177,0.2179,0.216,0.2169,0.2164,0.2168,0.2152,0.2148,0.2152,0.2139,0.214,0.2168,0.2196,0.2138,0.2139,0.2242,0.2246,0.2248,0.2305,0,0,0,0,0,0,0.2168,0.2171,0.2188,0.2178,0.218,0.2215,0.217,0.2166,0.2171,0.2166,0.2158,0.2155,0.2137,0.2166,0.217,0.2197,0.2141,0.224,0.2244,0.2247,0.23,0.2309,0.2317,0,0,0,0,0,0.2167,0.2203,0.2189,0.2192,0.22,0.2217,0.2218,0.2197,0.2173,0.219,0.218,0.2155,0.2192,0.217,0.2173,0.2201,0.2238,0.2243,0.2247,0.2297,0.2308,0.2317,0,0,0,0,0,0,0.2216,0.2202,0.2185,0.222,0.222,0.2208,0.2229,0.2209,0.2215,0.221,0.2184,0.2183,0.2215,0.2211,0.2186,0.2246,0.2211,0.2216,0.2248,0.2258,0.2266,0.2266,0.2142,0,0,0,0,0,0.2231,0.2246,0.2232,0.2264,0.2265,0.2248,0.2254,0.2238,0.2237,0.2237,0.2229,0.2229,0.2241,0.2249,0.2259,0.23,0.2298,0.2321,0.2329,0.2336,0.2341,0.2365,0.2375,0.2264,0.2264,0.2264,0,0,0.2262,0.2256,0.2267,0.2274,0.2272,0.2289,0.2248,0.2266,0.2278,0.2239,0.2266,0.226,0.2259,0.2294,0.2309,0.2291,0.2372,0.2342,0.2348,0.2349,0.237,0.2381,0.239,0.2268,0.2267,0.2266,0,0,0.2327,0.2324,0.2351,0.235,0.2349,0.2337,0.2344,0.2336,0.2331,0.2357,0.2329,0.2343,0.2364,0.2365,0.2368,0.2436,0.2414,0.244,0.2484,0.2507,0.2515,0.2523,0.2549,0.2558,0.2445,0.2445,0.2446,0,0.2366,0.2389,0.2367,0.2388,0.2393,0.236,0.2388,0.2388,0.239,0.2394,0.2375,0.2401,0.2398,0.2434,0.2451,0.2454,0.2462,0.2441,0.2516,0.2523,0.253,0.2554,0.2564,0.2449,0.2448,0.2448,0.2448,0,0.2438,0.2454,0.2477,0.248,0.2487,0.2512,0.2494,0.2505,0.2489,0.248,0.2508,0.2503,0.2513,0.252,0.2504,0.2555,0.2544,0.252,0.2485,0.2544,0.2567,0.2576,0.2453,0.2452,0.2451,0.245,0,0,0.2531,0.2525,0.2533,0.2535,0.2532,0.2545,0.2569,0.2579,0.2589,0.2592,0.2612,0.2631,0.261,0.2614,0.2598,0.2619,0.2675,0.2593,0.2593,0.2609,0.2732,0.275,0.2761,0.2661,0.2662,0.2664,0.2733,0,0.2595,0.2635,0.2617,0.2659,0.2676,0.2646,0.2667,0.2668,0.2661,0.2674,0.2666,0.2681,0.2651,0.2654,0.2672,0.2664,0.27,0.2659,0.268,0.2681,0.2681,0.2772,0.2791,0.2856,0.2741,0.2742,0.2743,0,0.2673,0.2681,0.2725,0.2722,0.2728,0.2747,0.2756,0.2768,0.277,0.2763,0.2769,0.275,0.2774,0.2739,0.2773,0.2746,0.2754,0.2751,0.2753,0.2754,0.2716,0.2777,0.2876,0.2886,0.2757,0.2756,0.2755,0,0.2739,0.276,0.279,0.2793,0.2789,0.2803,0.2802,0.2802,0.281,0.2818,0.2823,0.2833,0.2839,0.2848,0.2833,0.2808,0.2869,0.2833,0.2865,0.2866,0.2879,0.2878,0.2981,0.2884,0.2883,0.2883,0.2883,0,0.2812,0.284,0.282,0.2838,0.287,0.285,0.2882,0.2878,0.2878,0.2896,0.287,0.2888,0.2866,0.2882,0.287,0.2901,0.2903,0.2899,0.2896,0.2902,0.2902,0.2906,0.2902,0.2886,0.2885,0.2885,0.2884,0,0.289,0.2877,0.2908,0.2902,0.2902,0.2926,0.2921,0.2939,0.2931,0.2954,0.2958,0.2945,0.2962,0.2948,0.2965,0.2957,0.2998,0.2988,0.2998,0.2995,0.3029,0.3026,0.3138,0.3152,0.3045,0.3046,0.3047,0,0.2937,0.2958,0.2956,0.2966,0.2967,0.2984,0.2993,0.2975,0.2984,0.2989,0.3006,0.3022,0.3033,0.3062,0.3055,0.3068,0.3058,0.3097,0.306,0.3066,0.306,0.3059,0.3061,0.3104,0.3105,0.3106,0.3107,0,0.3022,0.3016,0.3029,0.3041,0.3052,0.306,0.3066,0.3076,0.3058,0.3071,0.3088,0.3097,0.3115,0.3131,0.3142,0.3142,0.3122,0.3119,0.3127,0.3133,0.3139,0.3137,0.3019,0.3116,0.3115,0.3115,0.3114,0.3114,0.3087,0.3105,0.3107,0.3123,0.3127,0.3134,0.315,0.3145,0.316,0.3173,0.3162,0.3184,0.3187,0.32,0.3202,0.322,0.3204,0.3216,0.3219,0.3222,0.3227,0.3136,0.3222,0.3221,0.3221,0.3221,0.3221,0,0.3171,0.3172,0.3187,0.3198,0.3211,0.3192,0.3199,0.3211,0.3231,0.3235,0.3248,0.3269,0.3285,0.328,0.3295,0.331,0.3301,0.3314,0.3313,0.3314,0.324,0.3232,0.3321,0.3321,0.3321,0.3321,0.3321,0.3321,0.3217,0.3248,0.3242,0.3276,0.3276,0.3297,0.3303,0.331,0.3314,0.3339,0.3353,0.335,0.3351,0.3366,0.3381,0.3379,0.3386,0.3402,0.3397,0.3328,0.3319,0.3309,0.3301,0.3404,0.3404,0.3469,0.347,0.347]}]]